[[{"header":{"parameterUnit":"m.s-1","parameterCategory":1,"la1":30.2991,"la2":30.254,"lo1":-89.0895,"lo2":-89.0444,"dy":0.0017,"dx":0.0017,"nx":28,"ny":28,"refTime":"2024-07-10T03:00:00:Z","depth":0,"parameterNumber":2,"parameterNumberName":"U-component_of_WINDS"},"data":[0,0,0,0,0,0,0,0,0,0,0,0,0,0,0,0,0,0,0,0,0,0,0,0,0,0,0,0,0,0,0,0,0,0,0,0,0,0,0,0,0,0,0,0,0,0,0,0,0,0,0,0,0,0,0,0,0,0,4.1618,4.162,0,4.1788,4.179,4.1792,4.1772,4.1769,4.1766,4.1764,4.1938,4.1945,4.1952,0,0,0,0,0,0,0,0,0,0,0,0,0,4.1276,4.1282,4.1618,4.162,4.1623,4.1787,4.179,4.1792,4.1772,4.1769,4.1766,4.1763,4.1936,4.1944,4.1953,0,0,0,0,0,0,0,0,0,0,0,0,0,4.1433,4.1284,4.1618,4.1632,4.1635,4.1787,4.179,4.1793,4.1773,4.1769,4.1765,4.1761,4.1933,4.1943,4.1954,4.2102,0,0,4.1987,4.1992,0,0,0,0,0,0,0,0,4.1424,4.1445,4.1628,4.1632,4.1635,4.1754,4.1733,4.1896,4.1774,4.1721,4.1764,4.1759,4.188,4.1895,4.1936,4.211,4.2118,4.1988,4.1994,4.1999,4.2002,0,0,0,0,0,0,0,4.1413,4.1438,4.1685,4.1631,4.1635,4.163,4.1648,4.1764,4.1821,4.1725,4.1724,4.1744,4.1882,4.1926,4.194,4.212,4.1988,4.1997,4.2004,4.2008,4.2419,4.2423,0,0,0,0,0,0,4.1398,4.1429,4.168,4.169,4.1517,4.1639,4.1659,4.172,4.182,4.1831,4.1748,4.1743,4.1909,4.1927,4.1946,4.2122,4.1999,4.2009,4.2015,4.2415,4.242,4.2425,0,0,0,0,0,0,4.1391,4.1421,4.1673,4.1559,4.1591,4.165,4.1718,4.1726,4.177,4.1837,4.1847,4.1782,4.1907,4.1931,4.2062,4.2128,4.2014,4.2024,4.2409,4.2416,4.2423,4.2477,0,0,0,0,0,0,4.1381,4.1419,4.1476,4.1561,4.1597,4.1787,4.1723,4.1732,4.1788,4.1784,4.1872,4.1883,4.1905,4.2046,4.2073,4.214,4.2032,4.2404,4.2412,4.242,4.2469,4.2485,4.2498,0,0,0,0,0,4.1369,4.1486,4.1479,4.151,4.167,4.1791,4.1812,4.1835,4.1794,4.1851,4.1894,4.188,4.2117,4.206,4.209,4.2161,4.24,4.241,4.242,4.2463,4.2482,4.2497,0,0,0,0,0,0,4.1409,4.1497,4.1491,4.1639,4.1707,4.1787,4.1861,4.1855,4.1937,4.1929,4.1955,4.1975,4.2106,4.2148,4.2083,4.2307,4.2252,4.2269,4.2275,4.2293,4.2307,4.2293,4.2041,0,0,0,0,0,4.1434,4.1525,4.1598,4.1721,4.1756,4.1802,4.1856,4.1868,4.194,4.1969,4.2021,4.2092,4.2181,4.224,4.2327,4.2476,4.2493,4.254,4.2554,4.2565,4.2578,4.2655,4.2676,4.2458,4.2458,4.2458,0,0,4.1489,4.1548,4.1605,4.173,4.1785,4.1877,4.1827,4.1928,4.1996,4.1985,4.211,4.2151,4.2231,4.2371,4.2435,4.2409,4.2642,4.2578,4.2586,4.2594,4.2668,4.2688,4.2707,4.2465,4.2464,4.2462,0,0,4.1633,4.169,4.1796,4.1851,4.1933,4.1963,4.1989,4.207,4.2096,4.2222,4.2214,4.2296,4.2451,4.2507,4.2556,4.2718,4.2707,4.2746,4.2819,4.2894,4.2911,4.2926,4.298,4.2999,4.276,4.276,4.276,0,4.169,4.1829,4.1852,4.1952,4.2006,4.1999,4.2105,4.2158,4.2265,4.2302,4.2272,4.2463,4.2517,4.2667,4.2706,4.2748,4.2775,4.2735,4.2907,4.2922,4.2937,4.2988,4.3009,4.2764,4.2763,4.2763,4.2762,0,4.1892,4.1989,4.2065,4.2166,4.2229,4.2332,4.2369,4.243,4.2436,4.2468,4.2595,4.2659,4.2756,4.2794,4.2802,4.2944,4.2925,4.2901,4.2845,4.2961,4.3009,4.303,4.2769,4.2768,4.2767,4.2766,0,0,4.2067,4.2177,4.2205,4.2248,4.2338,4.2412,4.2514,4.2608,4.2657,4.2732,4.2815,4.2945,4.2922,4.2977,4.2991,4.3058,4.3176,4.3025,4.3027,4.3047,4.3333,4.3347,4.337,4.3171,4.3175,4.3178,4.3324,0,4.2218,4.2397,4.2418,4.2577,4.2663,4.2657,4.2745,4.2808,4.2841,4.2919,4.2955,4.3044,4.301,4.3042,4.3108,4.3148,4.3233,4.3138,4.3246,4.325,4.3223,4.3396,4.3414,4.3549,4.3344,4.3347,4.335,0,4.2417,4.2494,4.266,4.2733,4.2771,4.285,4.2935,4.3011,4.3081,4.31,4.316,4.3165,4.3267,4.321,4.335,4.3285,4.333,4.3357,4.3362,4.3371,4.3304,4.3406,4.3593,4.3611,4.3381,4.3378,4.3376,0,4.2522,4.2668,4.2785,4.2823,4.2913,4.2967,4.3007,4.3074,4.3128,4.3203,4.3238,4.3325,4.3372,4.3438,4.3465,4.3421,4.3602,4.3548,4.3618,4.3618,4.3655,4.3651,4.3848,4.369,4.369,4.369,4.3689,0,4.2686,4.2787,4.2832,4.2904,4.3016,4.304,4.315,4.3188,4.3247,4.3324,4.3325,4.3398,4.3431,4.3508,4.353,4.364,4.3663,4.3679,4.3683,4.3677,4.3674,4.3705,4.3695,4.3695,4.3694,4.3693,4.3692,0,4.2821,4.2856,4.2983,4.3056,4.3077,4.3156,4.3218,4.3287,4.3318,4.3416,4.344,4.3489,4.358,4.3613,4.3725,4.374,4.3866,4.3864,4.3841,4.3841,4.3908,4.39,4.4128,4.4158,4.3984,4.3986,4.3987,0,4.2922,4.2999,4.308,4.3131,4.3172,4.3256,4.331,4.3336,4.3392,4.3476,4.3534,4.3624,4.3697,4.3842,4.3887,4.3971,4.3969,4.4043,4.3982,4.3972,4.3965,4.3959,4.3965,4.4054,4.4056,4.4057,4.4058,0,4.3094,4.3107,4.3185,4.3268,4.3332,4.3399,4.3464,4.3506,4.3541,4.3604,4.3696,4.3752,4.3864,4.3953,4.4038,4.4079,4.4073,4.4078,4.4097,4.409,4.4072,4.4078,4.3868,4.4072,4.407,4.4069,4.4069,4.4068,4.3213,4.3279,4.3345,4.343,4.3482,4.3541,4.3608,4.3646,4.3723,4.3815,4.3826,4.3924,4.399,4.4104,4.4148,4.4224,4.4203,4.4234,4.4241,4.4247,4.4249,4.4062,4.424,4.424,4.4239,4.4239,4.4239,0,4.3382,4.3423,4.3502,4.3591,4.3657,4.3647,4.3717,4.3773,4.3859,4.392,4.3991,4.4095,4.418,4.4231,4.4315,4.4366,4.4365,4.4387,4.4382,4.439,4.4264,4.4237,4.4386,4.4386,4.4386,4.4385,4.4385,4.4385,4.3477,4.3587,4.3607,4.3742,4.3783,4.3878,4.3918,4.3972,4.4021,4.4136,4.4206,4.4238,4.4294,4.4383,4.4459,4.4472,4.4501,4.4524,4.4534,4.4415,4.44,4.4385,4.4359,4.4531,4.4531,4.4653,4.4654,4.4655]},{"header":{"parameterUnit":"m.s-1","parameterCategory":1,"la1":30.2991,"la2":30.254,"lo1":-89.0895,"lo2":-89.0444,"dy":0.0017,"dx":0.0017,"nx":28,"ny":28,"refTime":"2024-07-10T03:00:00:Z","depth":0,"parameterNumber":3,"parameterNumberName":"V-component_of_WINDS"},"data":[0,0,0,0,0,0,0,0,0,0,0,0,0,0,0,0,0,0,0,0,0,0,0,0,0,0,0,0,0,0,0,0,0,0,0,0,0,0,0,0,0,0,0,0,0,0,0,0,0,0,0,0,0,0,0,0,0,0,3.2127,3.2127,0,3.2148,3.2148,3.2148,3.2098,3.2097,3.2095,3.2094,3.2114,3.2116,3.2118,0,0,0,0,0,0,0,0,0,0,0,0,0,3.2042,3.2044,3.2127,3.2127,3.2128,3.2147,3.2148,3.2148,3.2099,3.2097,3.2095,3.2093,3.2114,3.2116,3.2118,0,0,0,0,0,0,0,0,0,0,0,0,0,3.2073,3.2045,3.2127,3.2105,3.2104,3.2147,3.2148,3.2148,3.2099,3.2097,3.2094,3.2092,3.2113,3.2116,3.2119,3.2184,0,0,3.2128,3.2129,0,0,0,0,0,0,0,0,3.2071,3.2076,3.2108,3.2107,3.2105,3.2118,3.2125,3.216,3.21,3.2101,3.2094,3.2091,3.2117,3.212,3.2129,3.2185,3.2186,3.2128,3.213,3.2131,3.2132,0,0,0,0,0,0,0,3.2069,3.2075,3.2135,3.2109,3.2107,3.2094,3.2095,3.2132,3.2122,3.21,3.2097,3.21,3.2116,3.2126,3.2129,3.2186,3.2128,3.2131,3.2133,3.2134,3.2294,3.2296,0,0,0,0,0,0,3.207,3.2073,3.2134,3.2136,3.2082,3.2097,3.2099,3.2116,3.2121,3.212,3.2102,3.2098,3.2122,3.2125,3.2129,3.2204,3.2131,3.2134,3.2136,3.2292,3.2295,3.2297,0,0,0,0,0,0,3.2068,3.2076,3.2134,3.2103,3.211,3.2101,3.2121,3.2118,3.2128,3.2123,3.212,3.2114,3.212,3.2125,3.217,3.2204,3.2135,3.2138,3.2289,3.2292,3.2296,3.2356,0,0,0,0,0,0,3.2066,3.2075,3.2101,3.2104,3.2112,3.2175,3.2123,3.212,3.2133,3.2128,3.2134,3.2132,3.2119,3.2166,3.2173,3.2207,3.214,3.2286,3.229,3.2295,3.2351,3.2361,3.237,0,0,0,0,0,3.2063,3.2118,3.2103,3.2111,3.2144,3.2177,3.2181,3.2165,3.2136,3.2161,3.2157,3.2132,3.22,3.2171,3.2179,3.2214,3.2283,3.2289,3.2294,3.2346,3.2359,3.237,0,0,0,0,0,0,3.212,3.2118,3.2101,3.2159,3.2169,3.2169,3.22,3.2179,3.2197,3.2191,3.217,3.2172,3.222,3.2222,3.219,3.2276,3.2236,3.2244,3.2273,3.2285,3.2295,3.2293,3.2143,0,0,0,0,0,3.2139,3.2167,3.2164,3.2215,3.222,3.2209,3.2224,3.221,3.2219,3.2223,3.2222,3.2232,3.2254,3.227,3.2291,3.2351,3.235,3.2379,3.2388,3.2396,3.2402,3.2431,3.2443,3.2315,3.2315,3.2315,0,0,3.2179,3.2181,3.2201,3.2226,3.2232,3.226,3.2213,3.2246,3.2266,3.2228,3.2269,3.2269,3.2278,3.233,3.2353,3.2333,3.2437,3.2403,3.241,3.2411,3.2438,3.245,3.2461,3.2319,3.2318,3.2318,0,0,3.2266,3.2271,3.2313,3.2319,3.2328,3.232,3.233,3.2333,3.2331,3.2373,3.2343,3.2367,3.2408,3.2414,3.2423,3.2509,3.2485,3.2516,3.2566,3.2594,3.2604,3.2613,3.2642,3.2652,3.2523,3.2523,3.2523,0,3.2314,3.2356,3.2337,3.237,3.2381,3.2347,3.2388,3.2395,3.2411,3.2418,3.2396,3.2444,3.2448,3.2499,3.252,3.2529,3.2538,3.2515,3.2605,3.2613,3.2621,3.2648,3.2659,3.2526,3.2526,3.2526,3.2525,0,3.2413,3.2443,3.2475,3.2489,3.2504,3.2542,3.2527,3.2544,3.2528,3.2522,3.2564,3.2567,3.2586,3.2598,3.2584,3.2646,3.2633,3.2608,3.2568,3.2637,3.2662,3.2672,3.2532,3.253,3.2529,3.2528,0,0,3.2538,3.2539,3.2551,3.2556,3.2562,3.2584,3.2618,3.2637,3.2651,3.2662,3.2689,3.2723,3.2699,3.2709,3.2695,3.272,3.2785,3.2691,3.2691,3.2707,3.2851,3.2869,3.2882,3.2769,3.2771,3.2773,3.285,0,3.2621,3.268,3.2663,3.2722,3.2747,3.2713,3.2743,3.2749,3.2744,3.2764,3.2758,3.2781,3.2749,3.2754,3.2777,3.2772,3.2813,3.2766,3.2793,3.2794,3.279,3.2895,3.2915,3.2987,3.286,3.2861,3.2863,0,3.2727,3.2741,3.2802,3.2801,3.2811,3.2838,3.2852,3.2872,3.2877,3.2871,3.2881,3.2861,3.2893,3.2853,3.2896,3.2865,3.2875,3.2873,3.2876,3.2876,3.2832,3.2897,3.301,3.3021,3.2878,3.2877,3.2876,0,3.2809,3.2843,3.2883,3.2888,3.2889,3.2908,3.2909,3.2912,3.2923,3.2936,3.2942,3.2959,3.2967,3.298,3.2964,3.2937,3.3009,3.2968,3.3003,3.3004,3.3019,3.3018,3.3134,3.3029,3.3028,3.3028,3.3028,0,3.2903,3.2941,3.2919,3.2943,3.2984,3.2963,3.3004,3.3001,3.3004,3.3026,3.2999,3.302,3.2999,3.3018,3.3006,3.3042,3.3047,3.3042,3.3038,3.3044,3.3044,3.3049,3.3043,3.3031,3.303,3.303,3.3029,0,3.3001,3.2988,3.3029,3.3025,3.3024,3.3054,3.3051,3.3072,3.3064,3.3093,3.3098,3.3086,3.3107,3.3092,3.3114,3.3106,3.3152,3.3142,3.315,3.3147,3.3183,3.3179,3.3305,3.3319,3.3206,3.3207,3.3208,0,3.3061,3.3089,3.3088,3.31,3.3103,3.3124,3.3135,3.3115,3.3127,3.3134,3.3154,3.3173,3.3186,3.3221,3.3214,3.3229,3.3218,3.3261,3.322,3.3224,3.3216,3.3214,3.3216,3.3269,3.327,3.3271,3.3272,0,3.3169,3.316,3.3177,3.319,3.3204,3.3214,3.3222,3.3233,3.3213,3.3228,3.3248,3.3259,3.3279,3.3298,3.331,3.331,3.3287,3.3285,3.3294,3.3299,3.3302,3.3299,3.3171,3.3282,3.3281,3.3281,3.328,3.328,3.3248,3.3271,3.3272,3.329,3.3294,3.3301,3.332,3.3314,3.3331,3.3345,3.3332,3.3357,3.3359,3.3373,3.3376,3.3394,3.3376,3.3389,3.3392,3.3395,3.3399,3.33,3.3396,3.3396,3.3396,3.3395,3.3395,0,3.3353,3.3351,3.3369,3.3379,3.3393,3.337,3.3377,3.339,3.3411,3.3415,3.3428,3.3451,3.3468,3.3461,3.3475,3.3491,3.3481,3.3495,3.3493,3.3493,3.3415,3.3406,3.3503,3.3503,3.3503,3.3503,3.3503,3.3503,3.3409,3.3444,3.3435,3.3471,3.3469,3.3492,3.3497,3.3503,3.3506,3.3532,3.3545,3.354,3.3539,3.3553,3.3567,3.3564,3.357,3.3588,3.3582,3.3509,3.3499,3.3489,3.3479,3.359,3.359,3.3657,3.3658,3.3659]}]]